TUGUPOKER | Agen Poker Terpercaya | Agen Domino Online | Agen Poker Online| Judi Kartu Dewa Poker

Jackpot

Texas Poker Multi Jackpot System

Kini Telah hadir Jackpot SUPER ROYAL FLUSH

Kini Telah hadir Jackpot 2000 (khusus table VIP keatas).

Ikutilah global jackpot yang tersedia di system kami, dengan system jackpot terbaru dan pertama di indonesia, anda dapat membeli jackpot dengan harga 100 rupiah saja dan menangkan hadiahnya hingga puluhan juta rupiah.

Jackpot bukanlah suatu keharusan untuk dibeli, namun kami memberikan suatu fitur tambahan untuk member tercinta dari www.tugupoker.com.

Terdapat tiga pilihan harga jackpot yang bisa anda beli yaitu :100,500,1000 dan 2000(khusus table VIP Keatas) rupiah.

Hadiah dari Multi jackpot system www.tugupoker.com

  1. full house x 10 harga jackpot yang anda beli.
      (contoh:anda membeli 1000 maka:1000 X10 = 10.000)
  2. four of kind x 250 harga jackpot yang anda beli
      (contoh:anda membeli 1000 maka:1000 X250 = 250.000)
  3. Straight flush x 1200
      (contoh:anda membeli 1000 maka:1000 X1200 = 1.200.000)
  4. Royal flush x 10000 harga jackpot yang anda beli
      (contoh:anda membeli 1000 maka:1000 X10000 = 10.000.000)
  5. SUPER ROYAL FLUSH x 30000 harga jackpot yang anda beli
      (contoh:anda membeli 1000 maka:1000 X30000 = 30.000.000)

Kondisi kartu

  1. full house adalah kondisi kartu dimana kartu anda dan kartu tengah dengan total 7 kartu bisa mendapatkan nilai 5 kartu dengan kombinasi 1 tris(three of kind) dan 1 pair, contoh 3 kartu 10 dan 2 kartu 5
  2. Four of kind adalah kondisi kartu dimana kartu anda dan kartu tengah dengan total 7 kartu bisa mendapatkan nilai 5 kartu dengan kombinasi 4 kartu yang sama jumlah dan 1 kartu apapun juga contoh anda mendapatkan 4 buah kartu angka 3 dan 1 kartu apapun.
  3. Staright flush adalah kondisi kartu dimana kartu anda dan kartu tengah dengan total 7 kartu bisa mendapatkan nilai 5 kartu dengan kombinasi seri / staright dengan kembang yang sama contoh : urutan kartu dari angka 5, 6, 7, 8 , 9 10 dengan kembang yg sama misalnya as hati
  4. Royal flush adalah kondisi kartu dimana kartu anda dan kartu tengah dengan total 7 kartu bisa mendapatkan nilai 5 kartu dengan kombinasi seri / staright dengan kembang yang sama tetapi kartu tersebut haruslah dimulai dari 10. contoh 10, Queen, Jack, King dan aces dengan kembang yang sama
  5. Super Royal flush adalah kondisi kartu dimana Kedua kartu anda digabung dengan 3 kartu pertama meja haruslah royal flush. contoh kartu anda 10,Queen kembang sama dan 3 kartu pertama meja adalah Jack, King dan aces dengan kembang yang sama

Demikian adalah penjelasan dari Multi Jackpot www.tugupoker.com terima kasih dan selamat bermain salam hoki dari kami

Texas Poker Jackpot Winner

TOP SUPER ROYAL FLUSH
No.TanggalNamaPriceWin
128/06 12:06M_0_3_1_LSuper Royal flush3,000,000
228/06 00:43BOS3XMANSuper Royal flush15,000,000
327/06 22:10RIO496Super Royal flush3,000,000
427/06 21:25ANDRIMIFASuper Royal flush3,000,000
527/06 17:28TANTE_PUKISuper Royal flush3,000,000
TOP ROYAL FLUSH
No.TanggalNamaPriceWin
128/06 13:56UPGAN99Royal flush1,000,000
228/06 13:55LOLLIRoyal flush10,000,000
328/06 13:46B3075TMTRoyal flush5,000,000
428/06 13:40CHERIRoyal flush5,000,000
528/06 13:26HRAYA2017Royal flush1,000,000
TOP STRAIGHT FLUSH
No.TanggalNamaPriceWin
128/06 13:59TEMPA4T99Straight Flush600,000
228/06 13:57USOP91Straight Flush120,000
328/06 13:57REG151T1Straight Flush120,000
428/06 13:57MENEL13Straight Flush600,000
528/06 13:55CABAL87Straight Flush120,000
LATEST JACKPOT
No.TanggalNamaPriceWin
128/06 13:59LIMSILIONGFull House1,000
228/06 13:59TAPENSORRFull House5,000
328/06 13:59BRUNTUN966Full House5,000
428/06 13:59PRIA100Full House10,000
528/06 13:59NEUVILLEFull House20,000
628/06 13:59PUTTA89Full House1,000
728/06 13:59SIK4THABISFull House5,000
828/06 13:59HISASHI99Full House5,000
928/06 13:59GEMPAAAFull House1,000
1028/06 13:59IKAAPEX02Full House1,000
1128/06 13:59PABRIKCOLIFull House5,000
1228/06 13:59JAK16Full House5,000
1328/06 13:59PYJUD3985KFull House1,000
1428/06 13:59BODATNSTFull House5,000
1528/06 13:59BFCD0419Full House1,000
1628/06 13:59DIAN_757Full House1,000
1728/06 13:59M3LLY2000Full House1,000
1828/06 13:59SIMONTOK84Four Of A Kind125,000
1928/06 13:59RVCWQGI86JFour Of A Kind125,000
2028/06 13:59B3GALDUITFour Of A Kind25,000
2128/06 13:59LINTAH98Full House1,000
2228/06 13:59TEMPA4T99Straight Flush600,000
2328/06 13:59AHOKCY28Full House10,000
2428/06 13:59IN0D4D3Full House5,000
2528/06 13:59IT3UNKSFour Of A Kind125,000
2628/06 13:59P45T1J4D1Full House5,000
2728/06 13:59NIP00NFull House5,000
2828/06 13:59VOVO666Full House10,000
2928/06 13:59LUYENIANFull House10,000
3028/06 13:59GRANDASFull House1,000
3128/06 13:59SLEM17Full House5,000
3228/06 13:59BOKSINFull House1,000
3328/06 13:58LUCU111Full House1,000
3428/06 13:58KLEWR123Full House5,000
3528/06 13:58KAMSIN78Full House1,000
3628/06 13:58CAKR47Four Of A Kind25,000
3728/06 13:58DGOL83Four Of A Kind25,000
3828/06 13:58MBEB272Four Of A Kind125,000
3928/06 13:58CB77DAKOS24Four Of A Kind25,000
4028/06 13:58AX1000Full House5,000
4128/06 13:58ADEN000Four Of A Kind25,000
4228/06 13:58PUKIMACANFull House10,000
4328/06 13:58CAROLINE20Full House1,000
4428/06 13:58WELDER93Full House1,000
4528/06 13:58B1LL4HFull House1,000
4628/06 13:58YUKI71Full House5,000
4728/06 13:58BACODES11Full House5,000
4828/06 13:58HOKII_HOKIFull House1,000
4928/06 13:58CAKUK01Full House1,000
5028/06 13:58WALAMANFull House10,000

Domino Multi Jackpot System

Ikutilah global jackpot yang tersedia di system kami, dengan system jackpot terbaru dan pertama di indonesia, anda dapat membeli jackpot dengan harga 100 rupiah saja dan menangkan hadiahnya hingga puluhan juta rupiah.

Jackpot bukanlah suatu keharusan untuk dibeli, namun kami memberikan suatu fitur tambahan untuk member tercinta dari www.tugupoker.com.

Terdapat tiga pilihan harga jackpot yang bisa anda beli yaitu :100,500 dan 1000 rupiah.

Hadiah dari Multi jackpot system www.tugupoker.com

  1. Murni Kecil x 50 harga jackpot yang anda beli.
      (contoh:anda membeli 1000 maka:1000 X 50 = 50.000)
  2. Murni Besar x 50 harga jackpot yang anda beli
      (contoh:anda membeli 1000 maka:1000 X 50 = 50.000)
  3. BALAK x 100 harga jackpot yang anda beli
      (contoh:anda membeli 1000 maka:1000 X 100 = 100.000)
  4. ENAM DEWA x 6666 harga jackpot yang anda beli
      (contoh:anda membeli 1000 maka:1000 X 6666 = 6.666.000)

Demikian adalah penjelasan dari Multi Jackpot www.tugupoker.com terima kasih dan selamat bermain salam hoki dari kami

Domino Jackpot Winner

TOP ENAM DEWA
No.TanggalNamaPriceWin
128/06 13:58MOR0murni enam3,333,000
228/06 11:38SISUKAHOKImurni enam666,600
328/06 06:19TAKER83murni enam666,600
428/06 05:04PBR69murni enam6,666,000
528/06 03:24LASINO23murni enam6,666,000
TOP BALAK
No.TanggalNamaPriceWin
128/06 13:59NOVANTO63balak100,000
228/06 13:58SINDI123balak100,000
328/06 13:55CINTAJUDIbalak50,000
428/06 13:53BABEGUEDIEbalak100,000
528/06 13:50BRINDELZ11balak100,000
LATEST JACKPOT
No.TanggalNamaPriceWin
128/06 13:59BANKALmurni kecil5,000
228/06 13:59NOVANTO63balak100,000
328/06 13:58SINDI123balak100,000
428/06 13:58NGOPI999murni kecil5,000
528/06 13:58MOR0murni enam3,333,000
628/06 13:58KONE131murni kecil50,000
728/06 13:55CINTAJUDIbalak50,000
828/06 13:55FILAS69murni kecil25,000
928/06 13:55MULKI66murni besar25,000
1028/06 13:53BABEGUEDIEbalak100,000
1128/06 13:53EBAWNOL36murni kecil25,000
1228/06 13:52KHENKEN77murni besar25,000
1328/06 13:51QOQO1989murni besar50,000
1428/06 13:50BRINDELZ11balak100,000
1528/06 13:49GENDOENZZbalak10,000
1628/06 13:49MUMUJI93murni besar50,000
1728/06 13:47APEK1259murni kecil25,000
1828/06 13:46PABOTORO_8murni kecil50,000
1928/06 13:45TARIK5555murni besar5,000
2028/06 13:45DALLE_05murni kecil25,000
2128/06 13:44DALLE_05murni besar25,000
2228/06 13:44CJ95W3R3L6balak100,000
2328/06 13:43SOTOI_8murni besar50,000
2428/06 13:42UBERTOSmurni besar5,000
2528/06 13:41DM185391murni besar25,000
2628/06 13:41B41K14balak50,000
2728/06 13:41P4UL18murni kecil50,000
2828/06 13:40B41K14murni kecil25,000
2928/06 13:39SMA45murni kecil5,000
3028/06 13:39T4DFERNANDEZmurni besar25,000
3128/06 13:39T3G4_BGTmurni kecil50,000
3228/06 13:38KANAYA27murni kecil25,000
3328/06 13:37X_BLUE99murni besar25,000
3428/06 13:37A17178A4O08YH8Ubalak50,000
3528/06 13:37IRPAN22Qmurni kecil25,000
3628/06 13:36ADERVGB123murni besar50,000
3728/06 13:36FOX2B4H0RTmurni besar50,000
3828/06 13:36SONIK1234murni kecil50,000
3928/06 13:36AWD999murni kecil25,000
4028/06 13:36CCNDSYbalak100,000
4128/06 13:35ENGKUS007murni kecil5,000
4228/06 13:35FVCKB1TCHmurni besar50,000
4328/06 13:35ANZAY5murni kecil5,000
4428/06 13:34CKN1STHXYEmurni besar25,000
4528/06 13:33WSP79murni kecil25,000
4628/06 13:33WINLAHWINmurni besar50,000
4728/06 13:32JENDRA68murni kecil50,000
4828/06 13:32CYB9murni besar50,000
4928/06 13:31NIEL04murni kecil50,000
5028/06 13:31MEMET99murni kecil50,000

Ceme Multi Jackpot System

Jackpot dilihat dari gabungan kartu pemain dengan kartu bandar. Bandar harus membeli jackpot sebanyak jumlah player yang sedang duduk. Sebagai contoh bila terdapat 3 pemain duduk bermain, dan bandar memutuskan untuk membeli jackpot Rp 1.000, maka pada periode tersebut bandar akan membeli jackpot sebanyak 3xRp1.000 = Rp3.000.

Jackpot bukanlah suatu keharusan untuk dibeli, namun kami memberikan suatu fitur tambahan untuk member tercinta dari www.tugupoker.com.

Terdapat tiga pilihan harga jackpot yang bisa anda beli yaitu :100,500 dan 1000 rupiah.

Hadiah dari Multi jackpot system www.tugupoker.com

  1. Murni Kecil x 50 harga jackpot yang anda beli.
      (contoh:anda membeli 1000 maka:1000 X 50 = 50.000)
  2. Murni Besar x 50 harga jackpot yang anda beli
      (contoh:anda membeli 1000 maka:1000 X 50 = 50.000)
  3. BALAK x 200 harga jackpot yang anda beli
      (contoh:anda membeli 1000 maka:1000 X 200 = 200.000)
  4. ENAM DEWA x 6666 harga jackpot yang anda beli
      (contoh:anda membeli 1000 maka:1000 X 6666 = 6.666.000)

Demikian adalah penjelasan dari Multi Jackpot www.tugupoker.com terima kasih dan selamat bermain salam hoki dari kami

Ceme Jackpot Winner

TOP ENAM DEWA
No.TanggalNamaPriceWin
128/06 13:51ESTY99murni enam6,666,000
228/06 13:51RIAQ9murni enam6,666,000
328/06 13:05JULEHE99murni enam6,666,000
428/06 13:04PUKOE93murni enam6,666,000
528/06 13:04TINOMBALA8murni enam666,600
TOP BALAK
No.TanggalNamaPriceWin
128/06 13:59GOBANKKbalak200,000
228/06 13:59SEJAGAD333balak20,000
328/06 13:58SUDE95balak200,000
428/06 13:58ARIEA08balak20,000
528/06 13:57ENJOI01balak20,000
LATEST JACKPOT
No.TanggalNamaPriceWin
128/06 13:59GOBANKKbalak200,000
228/06 13:59SEJAGAD333balak20,000
328/06 13:59LASSBAND66murni besar50,000
428/06 13:59KIY0murni besar5,000
528/06 13:59BUNGLON99murni besar50,000
628/06 13:59TAISIAU1murni kecil50,000
728/06 13:58B5557205murni kecil50,000
828/06 13:58BOIKOTT77murni kecil50,000
928/06 13:58SUDE95balak200,000
1028/06 13:58ARIEA08balak20,000
1128/06 13:58C84D02D3murni kecil50,000
1228/06 13:57ENJOI01balak20,000
1328/06 13:57JEMPOL1234murni besar50,000
1428/06 13:56KDJ2balak200,000
1528/06 13:56ACONG43balak200,000
1628/06 13:56ROMADHO14murni kecil5,000
1728/06 13:56BAWAL07murni kecil50,000
1828/06 13:56CEPDAYUT99murni kecil50,000
1928/06 13:56TNB63murni kecil25,000
2028/06 13:56JEMER99murni besar50,000
2128/06 13:56ADAM20murni besar5,000
2228/06 13:56B85X19WHOJmurni kecil5,000
2328/06 13:56DN4DM150R4F401murni besar50,000
2428/06 13:56IDOY212murni besar25,000
2528/06 13:56RINJANI_Amurni kecil25,000
2628/06 13:55CLUBMOHmurni besar50,000
2728/06 13:55GICASbalak200,000
2828/06 13:55AYOEDHYmurni besar5,000
2928/06 13:55IDOY212murni kecil25,000
3028/06 13:55DINOO3murni kecil50,000
3128/06 13:55HERIANDImurni kecil50,000
3228/06 13:55LINUS888murni kecil25,000
3328/06 13:54GENDOK007murni kecil25,000
3428/06 13:54N0N0NGBAUmurni besar50,000
3528/06 13:54KIMAKKOmurni kecil5,000
3628/06 13:54JOCKERS1murni besar50,000
3728/06 13:54CEPDAYUT99murni besar50,000
3828/06 13:54ITNO88murni besar25,000
3928/06 13:54BOSE12murni kecil5,000
4028/06 13:54BAHAMUDbalak200,000
4128/06 13:54OPPO2709balak20,000
4228/06 13:54CONTINUE23murni kecil5,000
4328/06 13:54BANDET91murni kecil5,000
4428/06 13:54ACIEN40murni besar25,000
4528/06 13:538AMIRUDIN8balak200,000
4628/06 13:53LUPPHBOYS_murni kecil25,000
4728/06 13:53WALEZT41murni kecil25,000
4828/06 13:53KARUAN19murni kecil50,000
4928/06 13:53IMM112murni besar50,000
5028/06 13:53BUNGLON99murni kecil50,000